Location: Unspecified
(0.0000°N, 0.0000°E)
Time: 23:47:55
(UTC+00:00)

Tiangong - Pass Details

Date: 18 January 2022
Orbit: 381 x 387 km, 41.5° (Epoch: 27 January)

Event Time Altitude Azimuth Distance (km) Brightness Sun altitude
Rises 19:04:58 0° 220° (SW) 2,263 6.1 -12.7°
Reaches altitude 10° 19:07:04 10° 215° (SW) 1,407 4.8 -13.2°
Maximum altitude 19:10:12 55° 136° (SE) 467 1.3 -14.0°
Enters shadow 19:11:27 30° 72° (ENE) 712 1.8 -14.3°
